User: anonymous   Login
Location: Brno
(49.2000°N, 16.6330°E)
Time: 07:08:22
(UTC+01:00)
Language:

Cosmos 1603 - Orbit

View from above orbital plane
View from above orbital plane
View from above satellite
View from above satellite

Ground track
Ground track

The orbit data is extracted from the following two-line orbital elements,

1 15333U 84106A   16338.54098434 -.00000224  00000-0 -92829-4 0  9996
2 15333  71.0254 142.0489 0018081 151.3192 208.8928 14.14050048660606
Epoch (UTC): 03 December 2016 12:59:01
Eccentricity: 0.0018081
inclination: 71.0254°
perigee height: 832 km
apogee height: 858 km
right ascension of ascending node: 142.0489°
argument of perigee: 151.3192°
revolutions per day: 14.14050048
mean anomaly at epoch: 208.8928°
orbit number at epoch: 66060

The dashed part of the orbit path shows where the satellite is in the earth's shadow,  

DLR